TimeAKST,TemperatureF,Dew PointF,Humidity,Sea Level PressureIn,VisibilityMPH,Wind Direction,Wind SpeedMPH,Gust SpeedMPH,PrecipitationIn,Events,Conditions,WindDirDegrees,DateUTC
1:56 AM,45.0,42.1,90,29.72,10.0,Calm,Calm,-,N/A,,Clear,0,2012-11-08 10:56:00
2:56 AM,48.0,44.1,86,29.73,10.0,Calm,Calm,-,N/A,,Clear,0,2012-11-08 11:56:00
3:56 AM,48.0,44.1,86,29.71,10.0,SSE,3.5,-,N/A,,Mostly Cloudy,160,2012-11-08 12:56:00
4:56 AM,46.9,44.1,90,29.70,10.0,SSE,13.8,-,N/A,,Overcast,160,2012-11-08 13:56:00
5:56 AM,46.0,42.1,86,29.69,10.0,South,11.5,20.7,N/A,,Overcast,170,2012-11-08 14:56:00
6:09 AM,46.4,42.8,87,29.66,10.0,South,12.7,17.3,N/A,,Overcast,170,2012-11-08 15:09:00
6:56 AM,46.0,42.1,86,29.66,10.0,South,11.5,18.4,N/A,,Overcast,170,2012-11-08 15:56:00
7:56 AM,45.0,42.1,90,29.65,10.0,South,9.2,-,N/A,,Overcast,180,2012-11-08 16:56:00
8:44 AM,44.6,42.8,93,29.61,5.0,SSE,9.2,-,0.00,Rain,Light Rain,160,2012-11-08 17:44:00
8:56 AM,45.0,42.1,90,29.62,5.0,SE,3.5,-,0.00,Rain,Light Rain,130,2012-11-08 17:56:00
9:03 AM,44.6,42.8,93,29.60,5.0,ENE,10.4,-,0.00,Rain,Light Rain,60,2012-11-08 18:03:00
9:05 AM,44.6,42.8,93,29.60,5.0,ENE,8.1,-,0.00,Rain,Light Rain,60,2012-11-08 18:05:00
9:14 AM,44.6,42.8,93,29.60,5.0,East,6.9,-,0.00,Rain,Light Rain,90,2012-11-08 18:14:00
9:44 AM,44.6,42.8,93,29.59,4.0,ESE,4.6,-,0.00,Rain,Light Rain,120,2012-11-08 18:44:00
9:56 AM,45.0,43.0,93,29.60,4.0,Variable,5.8,-,0.00,Rain,Light Rain,0,2012-11-08 18:56:00
9:59 AM,44.6,42.8,93,29.59,10.0,Variable,4.6,-,0.00,Rain,Light Rain,0,2012-11-08 18:59:00
10:01 AM,44.6,42.8,93,29.58,5.0,ESE,5.8,-,0.00,Rain,Light Rain,110,2012-11-08 19:01:00
10:56 AM,45.0,42.1,90,29.57,6.0,Variable,3.5,-,0.01,Rain,Light Rain,0,2012-11-08 19:56:00
11:31 AM,44.6,42.8,93,29.52,5.0,SSW,3.5,-,0.03,Rain,Light Rain,200,2012-11-08 20:31:00
11:56 AM,45.0,42.1,90,29.53,5.0,South,4.6,-,0.04,Rain,Light Rain,190,2012-11-08 20:56:00
12:56 PM,46.0,42.1,86,29.49,5.0,Calm,Calm,-,0.05,Rain,Light Rain,0,2012-11-08 21:56:00
1:56 PM,44.1,42.1,93,29.43,6.0,Calm,Calm,-,0.03,Rain,Light Rain,0,2012-11-08 22:56:00
2:34 PM,44.6,42.8,93,29.38,8.0,NNW,3.5,-,0.01,Rain,Light Rain,330,2012-11-08 23:34:00
2:56 PM,45.0,43.0,93,29.38,9.0,Calm,Calm,-,0.01,Rain,Light Rain,0,2012-11-08 23:56:00
3:26 PM,44.6,42.8,93,29.34,8.0,NW,3.5,-,0.01,Rain,Light Rain,320,2012-11-09 00:26:00
3:56 PM,44.1,42.1,93,29.34,8.0,NW,3.5,-,0.03,Rain,Light Rain,310,2012-11-09 00:56:00
4:56 PM,43.0,39.9,89,29.28,6.0,West,5.8,-,0.03,Rain,Light Rain,270,2012-11-09 01:56:00
5:56 PM,42.1,39.9,92,29.23,8.0,Calm,Calm,-,0.01,Rain,Light Rain,0,2012-11-09 02:56:00
6:02 PM,42.8,39.2,87,29.21,5.0,Calm,Calm,-,0.01,Rain,Light Rain,0,2012-11-09 03:02:00
6:46 PM,42.8,41.0,93,29.17,8.0,Calm,Calm,-,0.02,Rain,Light Rain,0,2012-11-09 03:46:00
6:56 PM,43.0,42.1,97,29.18,10.0,NW,3.5,-,0.02,Rain,Light Rain,320,2012-11-09 03:56:00
7:42 PM,42.8,39.2,87,29.13,4.0,Calm,Calm,-,0.01,Rain,Light Rain,0,2012-11-09 04:42:00
7:56 PM,42.1,39.9,92,29.13,5.0,West,4.6,-,0.01,Rain,Light Rain,270,2012-11-09 04:56:00
8:40 PM,42.8,39.2,87,29.09,5.0,North,3.5,-,0.01,,Overcast,350,2012-11-09 05:40:00
8:56 PM,42.1,41.0,96,29.10,5.0,North,5.8,-,0.01,Rain,Light Rain,350,2012-11-09 05:56:00
9:15 PM,42.8,41.0,93,29.07,3.0,WNW,4.6,-,0.00,Rain,Light Rain,300,2012-11-09 06:15:00
9:56 PM,42.1,41.0,96,29.07,4.0,NW,3.5,-,0.00,Rain,Light Rain,310,2012-11-09 06:56:00
10:28 PM,42.8,41.0,93,29.04,5.0,WNW,4.6,-,0.00,,Overcast,290,2012-11-09 07:28:00
10:43 PM,42.8,41.0,93,29.04,4.0,NW,4.6,-,0.00,,Overcast,320,2012-11-09 07:43:00
10:56 PM,42.1,41.0,96,29.05,2.0,West,3.5,-,0.00,,Overcast,270,2012-11-09 07:56:00
11:10 PM,42.8,39.2,87,29.03,1.5,WNW,3.5,-,N/A,,Overcast,290,2012-11-09 08:10:00
11:32 PM,41.0,39.2,93,29.03,3.0,Variable,3.5,-,N/A,,Overcast,0,2012-11-09 08:32:00
11:56 PM,42.1,39.9,92,29.04,1.5,Calm,Calm,-,0.00,Rain,Light Rain,0,2012-11-09 08:56:00